Time,TemperatureF,DewpointF,PressureIn,WindDirection,WindDirectionDegrees,WindSpeedMPH,WindSpeedGustMPH,Humidity,HourlyPrecipIn,Conditions,Clouds,dailyrainin,SolarRadiationWatts/m^2,SoftwareType,DateUTC
2015-02-28 00:00:00,48.3,42.7,29.74,WSW,238,10.0,25.0,81,0.00,SCT,SCT,0.00,0.0,WeatherDisplay:10.37,2015-02-28 08:00:00,
2015-02-28 00:05:00,48.2,42.6,29.74,WSW,257,13.0,16.0,81,0.00,SCT,SCT,0.00,0.0,WeatherDisplay:10.37,2015-02-28 08:05:00,
2015-02-28 00:10:00,48.3,42.7,29.74,West,273,10.0,18.0,81,0.00,SCT,SCT,0.00,0.0,WeatherDisplay:10.37,2015-02-28 08:10:00,
2015-02-28 00:20:00,48.2,42.6,29.74,WSW,254,13.0,20.0,81,0.00,CLR,CLR,0.00,0.0,WeatherDisplay:10.37,2015-02-28 08:20:00,
2015-02-28 00:30:00,48.0,42.1,29.74,WSW,253,13.0,18.0,80,0.00,CLR,CLR,0.00,0.0,WeatherDisplay:10.37,2015-02-28 08:30:00,
2015-02-28 00:40:00,47.9,42.0,29.74,WSW,248,14.0,22.0,80,0.00,CLR,CLR,0.00,0.0,WeatherDisplay:10.37,2015-02-28 08:40:00,
2015-02-28 00:50:00,47.8,41.9,29.74,WSW,254,8.0,16.0,80,0.00,CLR,CLR,0.00,0.0,WeatherDisplay:10.37,2015-02-28 08:50:00,
2015-02-28 01:00:00,47.7,42.2,29.74,West,262,8.0,15.0,81,0.00,CLR,CLR,0.00,0.0,WeatherDisplay:10.37,2015-02-28 09:00:00,
2015-02-28 01:05:00,47.7,42.2,29.74,West,265,12.0,16.0,81,0.00,CLR,CLR,0.00,0.0,WeatherDisplay:10.37,2015-02-28 09:05:00,
2015-02-28 01:10:00,47.6,42.1,29.74,WSW,256,8.0,13.0,81,0.00,CLR,CLR,0.00,0.0,WeatherDisplay:10.37,2015-02-28 09:10:00,
2015-02-28 01:20:00,47.7,42.5,29.75,West,274,8.0,15.0,82,0.00,CLR,CLR,0.00,0.0,WeatherDisplay:10.37,2015-02-28 09:20:00,
2015-02-28 01:30:00,47.7,42.8,29.74,West,275,7.0,12.0,83,0.00,CLR,CLR,0.00,0.0,WeatherDisplay:10.37,2015-02-28 09:30:00,
2015-02-28 01:40:00,47.6,42.7,29.75,West,276,8.0,12.0,83,0.00,CLR,CLR,0.00,0.0,WeatherDisplay:10.37,2015-02-28 09:40:00,
2015-02-28 01:50:00,47.5,42.3,29.75,WSW,256,7.0,10.0,82,0.00,CLR,CLR,0.00,0.0,WeatherDisplay:10.37,2015-02-28 09:50:00,
2015-02-28 02:00:00,47.6,42.4,29.74,SW,229,10.0,15.0,82,0.00,CLR,CLR,0.00,0.0,WeatherDisplay:10.37,2015-02-28 10:00:00,
2015-02-28 02:05:00,47.6,42.4,29.74,SW,230,13.0,17.0,82,0.00,CLR,CLR,0.00,0.0,WeatherDisplay:10.37,2015-02-28 10:05:00,
2015-02-28 02:10:00,47.6,42.4,29.74,WSW,245,13.0,17.0,82,0.00,CLR,CLR,0.00,0.0,WeatherDisplay:10.37,2015-02-28 10:10:00,
2015-02-28 02:20:00,47.6,42.4,29.74,WSW,254,12.0,15.0,82,0.00,CLR,CLR,0.00,0.0,WeatherDisplay:10.37,2015-02-28 10:20:00,
2015-02-28 02:30:00,47.6,42.7,29.74,WSW,251,9.0,13.0,83,0.00,CLR,CLR,0.00,0.0,WeatherDisplay:10.37,2015-02-28 10:30:00,
2015-02-28 02:40:00,47.5,42.9,29.73,WSW,240,14.0,16.0,84,0.00,CLR,CLR,0.00,0.0,WeatherDisplay:10.37,2015-02-28 10:40:00,
2015-02-28 02:50:00,47.5,42.9,29.73,WSW,244,9.0,13.0,84,0.00,CLR,CLR,0.00,0.0,WeatherDisplay:10.37,2015-02-28 10:50:00,
2015-02-28 03:00:00,47.4,43.1,29.73,WSW,239,10.0,14.0,85,0.00,CLR,CLR,0.00,0.0,WeatherDisplay:10.37,2015-02-28 11:00:00,
2015-02-28 03:05:00,47.4,43.1,29.73,WSW,239,8.0,13.0,85,0.00,CLR,CLR,0.00,0.0,WeatherDisplay:10.37,2015-02-28 11:05:00,
2015-02-28 03:10:00,47.4,43.4,29.73,SW,235,7.0,12.0,86,0.00,CLR,CLR,0.00,0.0,WeatherDisplay:10.37,2015-02-28 11:10:00,
2015-02-28 03:20:00,47.4,43.4,29.73,WSW,245,12.0,15.0,86,0.00,CLR,CLR,0.00,0.0,WeatherDisplay:10.37,2015-02-28 11:20:00,
2015-02-28 03:30:00,47.6,43.6,29.73,WSW,242,8.0,14.0,86,0.00,CLR,CLR,0.00,0.0,WeatherDisplay:10.37,2015-02-28 11:30:00,
2015-02-28 03:40:00,47.5,43.5,29.72,WSW,241,8.0,13.0,86,0.00,CLR,CLR,0.00,0.0,WeatherDisplay:10.37,2015-02-28 11:40:00,
2015-02-28 03:50:00,47.3,43.3,29.73,WSW,244,6.0,9.0,86,0.00,CLR,CLR,0.00,0.0,WeatherDisplay:10.37,2015-02-28 11:50:00,
2015-02-28 04:00:00,47.2,43.2,29.73,SW,228,5.0,8.0,86,0.00,CLR,CLR,0.00,0.0,WeatherDisplay:10.37,2015-02-28 12:00:00,
2015-02-28 04:05:00,47.2,43.2,29.73,SW,230,3.0,7.0,86,0.00,CLR,CLR,0.00,0.0,WeatherDisplay:10.37,2015-02-28 12:05:00,
2015-02-28 04:10:00,47.2,43.2,29.73,SW,223,6.0,9.0,86,0.00,CLR,CLR,0.00,0.0,WeatherDisplay:10.37,2015-02-28 12:10:00,
2015-02-28 04:20:00,47.2,43.2,29.73,SW,227,5.0,7.0,86,0.00,FEW,FEW,0.00,0.0,WeatherDisplay:10.37,2015-02-28 12:20:00,
2015-02-28 04:30:00,47.2,43.2,29.73,SW,229,9.0,12.0,86,0.00,FEW,FEW,0.00,0.0,WeatherDisplay:10.37,2015-02-28 12:30:00,
2015-02-28 04:40:00,47.3,43.3,29.73,WSW,237,9.0,12.0,86,0.00,FEW,FEW,0.00,0.0,WeatherDisplay:10.37,2015-02-28 12:40:00,
2015-02-28 04:50:00,47.5,43.2,29.73,SW,228,7.0,10.0,85,0.00,FEW,FEW,0.00,0.0,WeatherDisplay:10.37,2015-02-28 12:50:00,
2015-02-28 05:00:00,47.6,43.3,29.73,WSW,239,8.0,10.0,85,0.00,FEW,FEW,0.00,0.0,WeatherDisplay:10.37,2015-02-28 13:00:00,
2015-02-28 05:05:00,47.7,43.4,29.73,WSW,246,8.0,10.0,85,0.00,FEW,FEW,0.00,0.0,WeatherDisplay:10.37,2015-02-28 13:05:00,
2015-02-28 05:10:00,47.7,43.1,29.73,WSW,252,8.0,13.0,84,0.00,FEW,FEW,0.00,0.0,WeatherDisplay:10.37,2015-02-28 13:10:00,
2015-02-28 05:20:00,47.8,43.2,29.74,WSW,247,6.0,8.0,84,0.00,SCT,SCT,0.00,0.0,WeatherDisplay:10.37,2015-02-28 13:20:00,
2015-02-28 05:30:00,47.9,43.3,29.74,SW,236,5.0,8.0,84,0.00,SCT,SCT,0.00,0.0,WeatherDisplay:10.37,2015-02-28 13:30:00,
2015-02-28 05:40:00,47.8,43.2,29.74,SW,223,7.0,10.0,84,0.00,SCT,SCT,0.00,0.0,WeatherDisplay:10.37,2015-02-28 13:40:00,
2015-02-28 05:50:00,47.8,43.8,29.74,SW,231,6.0,8.0,86,0.00,SCT,SCT,0.00,0.0,WeatherDisplay:10.37,2015-02-28 13:50:00,
2015-02-28 06:00:00,47.8,43.8,29.74,WSW,240,3.0,5.0,86,0.00,SCT,SCT,0.00,0.0,WeatherDisplay:10.37,2015-02-28 14:00:00,
2015-02-28 06:05:00,47.8,44.4,29.74,SW,236,5.0,6.0,88,0.00,SCT,SCT,0.00,0.0,WeatherDisplay:10.37,2015-02-28 14:05:00,
2015-02-28 06:10:00,47.6,44.3,29.74,SW,229,7.0,9.0,88,0.00,SCT,SCT,0.00,0.0,WeatherDisplay:10.37,2015-02-28 14:10:00,
2015-02-28 06:20:00,47.2,43.8,29.74,SW,230,7.0,10.0,88,0.00,-RA,-RA,0.00,0.0,WeatherDisplay:10.37,2015-02-28 14:20:00,
2015-02-28 06:30:00,46.9,43.8,29.74,SW,234,8.0,10.0,89,0.00,-RA,-RA,0.00,0.0,WeatherDisplay:10.37,2015-02-28 14:30:00,
2015-02-28 06:40:00,46.7,43.9,29.74,SW,234,7.0,9.0,90,0.00,-RA,-RA,0.00,0.0,WeatherDisplay:10.37,2015-02-28 14:40:00,
2015-02-28 06:50:00,46.5,43.1,29.74,SW,235,8.0,10.0,88,0.00,-RA,-RA,0.00,7.0,WeatherDisplay:10.37,2015-02-28 14:50:00,
2015-02-28 07:00:00,46.7,43.3,29.74,WSW,243,7.0,10.0,88,0.00,-RA,-RA,0.00,23.0,WeatherDisplay:10.37,2015-02-28 15:00:00,
2015-02-28 07:05:00,46.8,43.4,29.75,WSW,248,6.0,9.0,88,0.00,-RA,-RA,0.00,23.0,WeatherDisplay:10.37,2015-02-28 15:05:00,
2015-02-28 07:10:00,46.9,43.2,29.75,WSW,252,6.0,7.0,87,0.00,-RA,-RA,0.00,18.0,WeatherDisplay:10.37,2015-02-28 15:10:00,
2015-02-28 07:20:00,46.9,43.2,29.75,WSW,239,3.0,8.0,87,0.00,CLR,CLR,0.00,35.0,WeatherDisplay:10.37,2015-02-28 15:20:00,
2015-02-28 07:30:00,47.0,43.3,29.75,SW,227,6.0,8.0,87,0.00,CLR,CLR,0.00,56.0,WeatherDisplay:10.37,2015-02-28 15:30:00,
2015-02-28 07:40:00,47.6,43.9,29.75,WSW,240,5.0,8.0,87,0.00,CLR,CLR,0.00,141.0,WeatherDisplay:10.37,2015-02-28 15:40:00,
2015-02-28 07:50:00,48.7,44.1,29.76,WSW,240,3.0,8.0,84,0.00,CLR,CLR,0.00,151.0,WeatherDisplay:10.37,2015-02-28 15:50:00,
2015-02-28 08:00:00,49.8,44.9,29.76,WSW,244,5.0,9.0,83,0.00,CLR,CLR,0.00,264.0,WeatherDisplay:10.37,2015-02-28 16:00:00,
2015-02-28 08:05:00,50.1,44.5,29.76,WSW,244,6.0,9.0,81,0.00,CLR,CLR,0.00,257.0,WeatherDisplay:10.37,2015-02-28 16:05:00,
2015-02-28 08:10:00,50.3,44.7,29.76,WSW,249,3.0,7.0,81,0.00,CLR,CLR,0.00,160.0,WeatherDisplay:10.37,2015-02-28 16:10:00,
2015-02-28 08:20:00,50.4,44.8,29.76,WSW,250,5.0,8.0,81,0.00,SCT,SCT,0.00,299.0,WeatherDisplay:10.37,2015-02-28 16:20:00,
2015-02-28 08:30:00,51.2,45.2,29.77,WSW,255,6.0,8.0,80,0.00,SCT,SCT,0.00,336.0,WeatherDisplay:10.37,2015-02-28 16:30:00,
2015-02-28 08:40:00,51.8,44.5,29.77,West,260,6.0,8.0,76,0.00,SCT,SCT,0.00,366.0,WeatherDisplay:10.37,2015-02-28 16:40:00,
2015-02-28 08:50:00,52.7,45.0,29.77,West,259,2.0,5.0,75,0.00,SCT,SCT,0.00,401.0,WeatherDisplay:10.37,2015-02-28 16:50:00,
2015-02-28 09:00:00,54.0,45.5,29.77,WNW,301,2.0,8.0,73,0.00,SCT,SCT,0.00,482.0,WeatherDisplay:10.37,2015-02-28 17:00:00,
2015-02-28 09:05:00,54.9,45.7,29.77,WNW,298,1.0,8.0,71,0.00,SCT,SCT,0.00,346.0,WeatherDisplay:10.37,2015-02-28 17:05:00,
2015-02-28 09:10:00,55.4,45.4,29.77,WNW,287,2.0,8.0,69,0.00,SCT,SCT,0.00,178.0,WeatherDisplay:10.37,2015-02-28 17:10:00,
2015-02-28 09:20:00,54.8,45.2,29.77,WNW,295,5.0,15.0,70,0.00,SCT,SCT,0.00,165.0,WeatherDisplay:10.37,2015-02-28 17:20:00,
2015-02-28 09:30:00,54.4,44.9,29.78,WNW,293,7.0,10.0,70,0.00,SCT,SCT,0.00,137.0,WeatherDisplay:10.37,2015-02-28 17:30:00,
2015-02-28 09:40:00,54.5,45.3,29.78,NW,307,2.0,7.0,71,0.00,SCT,SCT,0.00,738.0,WeatherDisplay:10.37,2015-02-28 17:40:00,
2015-02-28 09:50:00,55.9,45.5,29.78,NW,307,3.0,7.0,68,0.00,SCT,SCT,0.00,251.0,WeatherDisplay:10.37,2015-02-28 17:50:00,
2015-02-28 10:00:00,55.3,47.1,29.79,WNW,289,12.0,15.0,74,0.01,RA,RA,0.04,42.0,WeatherDisplay:10.37,2015-02-28 18:00:00,
2015-02-28 10:05:00,53.3,46.6,29.79,West,274,3.0,13.0,78,0.00,RA,RA,0.05,67.0,WeatherDisplay:10.37,2015-02-28 18:05:00,
2015-02-28 10:10:00,52.0,46.3,29.79,WSW,253,6.0,9.0,81,0.00,RA,RA,0.05,84.0,WeatherDisplay:10.37,2015-02-28 18:10:00,
2015-02-28 10:20:00,50.1,46.1,29.79,WSW,242,2.0,5.0,86,0.00,SCT,SCT,0.05,67.0,WeatherDisplay:10.37,2015-02-28 18:20:00,
2015-02-28 10:30:00,49.4,45.7,29.80,SW,220,0.0,3.0,87,0.00,SCT,SCT,0.05,58.0,WeatherDisplay:10.37,2015-02-28 18:30:00,
2015-02-28 10:40:00,49.0,45.3,29.80,SSW,206,3.0,5.0,87,0.00,SCT,SCT,0.05,72.0,WeatherDisplay:10.37,2015-02-28 18:40:00,
2015-02-28 10:50:00,49.3,46.8,29.80,South,190,2.0,5.0,91,0.00,SCT,SCT,0.05,643.0,WeatherDisplay:10.37,2015-02-28 18:50:00,
2015-02-28 11:00:00,51.3,47.5,29.80,South,180,2.0,4.0,87,0.00,SCT,SCT,0.05,668.0,WeatherDisplay:10.37,2015-02-28 19:00:00,
2015-02-28 11:05:00,52.4,47.1,29.79,South,174,0.0,5.0,82,0.00,-RA,-RA,0.05,719.0,WeatherDisplay:10.37,2015-02-28 19:05:00,
2015-02-28 11:10:00,53.7,47.3,29.80,SSE,147,3.0,4.0,79,0.00,-RA,-RA,0.05,765.0,WeatherDisplay:10.37,2015-02-28 19:10:00,
2015-02-28 11:20:00,55.6,48.9,29.79,ESE,104,1.0,6.0,78,0.00,-RA,-RA,0.05,793.0,WeatherDisplay:10.37,2015-02-28 19:20:00,
2015-02-28 11:30:00,55.2,47.8,29.79,East,88,0.0,6.0,76,0.00,-RA,-RA,0.05,148.0,WeatherDisplay:10.37,2015-02-28 19:30:00,
2015-02-28 11:40:00,55.0,48.6,29.79,ESE,109,1.0,4.0,79,0.00,BKN,BKN,0.05,902.0,WeatherDisplay:10.37,2015-02-28 19:40:00,
2015-02-28 11:50:00,55.9,48.8,29.79,East,85,2.0,4.0,77,0.00,BKN,BKN,0.05,577.0,WeatherDisplay:10.37,2015-02-28 19:50:00,
2015-02-28 12:00:00,57.2,50.4,29.79,ENE,76,1.0,5.0,78,0.00,BKN,BKN,0.05,900.0,WeatherDisplay:10.37,2015-02-28 20:00:00,
2015-02-28 12:05:00,57.6,50.4,29.79,NNE,26,1.0,6.0,77,0.00,BKN,BKN,0.05,448.0,WeatherDisplay:10.37,2015-02-28 20:05:00,
2015-02-28 12:10:00,57.5,48.9,29.79,NW,323,5.0,8.0,73,0.01,RA,RA,0.06,111.0,WeatherDisplay:10.37,2015-02-28 20:10:00,
2015-02-28 12:20:00,55.8,48.0,29.80,NW,316,0.0,6.0,75,0.00,RA,RA,0.07,76.0,WeatherDisplay:10.37,2015-02-28 20:20:00,
2015-02-28 12:30:00,53.0,47.0,29.80,NW,304,1.0,4.0,80,0.01,RA,RA,0.10,90.0,WeatherDisplay:10.37,2015-02-28 20:30:00,
2015-02-28 12:40:00,50.8,45.8,29.80,WSW,254,2.0,6.0,83,0.00,RA,RA,0.12,97.0,WeatherDisplay:10.37,2015-02-28 20:40:00,
2015-02-28 12:50:00,49.8,46.1,29.79,WSW,247,3.0,5.0,87,0.00,RA,RA,0.13,102.0,WeatherDisplay:10.37,2015-02-28 20:50:00,
2015-02-28 13:00:00,49.6,46.5,29.79,SW,221,7.0,8.0,89,0.00,CLR,CLR,0.13,98.0,WeatherDisplay:10.37,2015-02-28 21:00:00,
2015-02-28 13:05:00,49.4,46.3,29.79,SW,222,5.0,8.0,89,0.00,CLR,CLR,0.13,116.0,WeatherDisplay:10.37,2015-02-28 21:05:00,